Estación de Quillota
Ultimos registro cada 15 minutos 65
| N° | Estación | Fecha / Hora | Temperatura | Humedad | Lluvia | Velocidad | Dirección | Radiación | Presion |
| 65 | Quillota | 09-05-2026 16:00 | 22,9 | 46 | 0 | 1,3 | 252 | 202 | 1012,6 |
| 64 | Quillota | 09-05-2026 15:45 | 23,5 | 40 | 0 | 2,7 | 254 | 232 | 1012,8 |
| 63 | Quillota | 09-05-2026 15:30 | 23,6 | 39 | 0 | 2,2 | 264 | 258 | 1012,8 |
| 62 | Quillota | 09-05-2026 15:15 | 23,6 | 38 | 0 | 0,9 | 243 | 283 | 1012,9 |
| 61 | Quillota | 09-05-2026 15:00 | 23,5 | 38 | 0 | 0,4 | 237 | 308 | 1012,9 |
| 60 | Quillota | 09-05-2026 14:45 | 23,2 | 41 | 0 | 2,7 | 250 | 329 | 1013,1 |
| 59 | Quillota | 09-05-2026 14:30 | 22,8 | 43 | 0 | 1,8 | 268 | 350 | 1013,1 |
| 58 | Quillota | 09-05-2026 14:15 | 22,6 | 45 | 0 | 0,9 | 252 | 364 | 1013,1 |
| 57 | Quillota | 09-05-2026 14:00 | 22,4 | 46 | 0 | 1,8 | 250 | 381 | 1013,3 |
| 56 | Quillota | 09-05-2026 13:45 | 22,2 | 47 | 0 | 2,2 | 257 | 396 | 1013,4 |
| 55 | Quillota | 09-05-2026 13:30 | 22,6 | 48 | 0 | 3,6 | 254 | 404 | 1013,5 |
| 54 | Quillota | 09-05-2026 13:15 | 22,9 | 45 | 0 | 4,5 | 264 | 411 | 1013,6 |
| 53 | Quillota | 09-05-2026 13:00 | 22,9 | 39 | 0 | 1,3 | 261 | 417 | 1013,7 |
| 52 | Quillota | 09-05-2026 12:45 | 22,4 | 41 | 0 | 0,9 | 248 | 420 | 1013,7 |
| 51 | Quillota | 09-05-2026 12:30 | 22 | 44 | 0 | 0,9 | 190 | 418 | 1013,9 |
| 50 | Quillota | 09-05-2026 12:15 | 21,3 | 46 | 0 | 0,9 | 265 | 417 | 1014 |
| 49 | Quillota | 09-05-2026 12:00 | 20,6 | 49 | 0 | 0,4 | 171 | 413 | 1014,4 |
| 48 | Quillota | 09-05-2026 11:45 | 19,8 | 50 | 0 | 0,9 | 262 | 406 | 1014,5 |
| 47 | Quillota | 09-05-2026 11:30 | 18,9 | 54 | 0 | 0,9 | 286 | 394 | 1014,5 |
| 46 | Quillota | 09-05-2026 11:15 | 18,2 | 55 | 0 | 0 | 229 | 381 | 1014,5 |
| 45 | Quillota | 09-05-2026 11:00 | 17,4 | 59 | 0 | 1,8 | 204 | 362 | 1014,8 |
| 44 | Quillota | 09-05-2026 10:45 | 16,5 | 61 | 0 | 0,4 | 241 | 343 | 1014,9 |
| 43 | Quillota | 09-05-2026 10:30 | 15,9 | 63 | 0 | 1,8 | 300 | 320 | 1014,9 |
| 42 | Quillota | 09-05-2026 10:15 | 15,1 | 67 | 0 | 1,3 | 271 | 294 | 1015,2 |
| 41 | Quillota | 09-05-2026 10:00 | 14,1 | 70 | 0 | 1,8 | 257 | 265 | 1015,1 |
| 40 | Quillota | 09-05-2026 09:45 | 12,7 | 78 | 0 | 1,8 | 234 | 225 | 1015,1 |
| 39 | Quillota | 09-05-2026 09:30 | 11,4 | 86 | 0 | 1,3 | 205 | 209 | 1015 |
| 38 | Quillota | 09-05-2026 09:15 | 10,4 | 93 | 0 | 1,3 | 250 | 179 | 1015,1 |
| 37 | Quillota | 09-05-2026 09:00 | 9,3 | 95 | 0 | 0,9 | 185 | 153 | 1015,4 |
| 36 | Quillota | 09-05-2026 08:45 | 7,9 | 95 | 0 | 1,3 | 215 | 125 | 1015,4 |
| 35 | Quillota | 09-05-2026 08:30 | 6,2 | 94 | 0 | 0 | 185 | 95 | 1015,3 |
| 34 | Quillota | 09-05-2026 08:15 | 5,1 | 94 | 0 | 0 | 115 | 62 | 1015,1 |
| 33 | Quillota | 09-05-2026 08:00 | 4,3 | 93 | 0 | 0,4 | 100 | 11 | 1015,2 |
| 32 | Quillota | 09-05-2026 07:45 | 3,9 | 92 | 0 | 0,4 | 347 | 7 | 1015,1 |
| 31 | Quillota | 09-05-2026 07:30 | 4,1 | 92 | 0 | 0,4 | 258 | 5 | 1015,1 |
| 30 | Quillota | 09-05-2026 07:15 | 5,1 | 93 | 0 | 0,4 | 129 | 0 | 1015,2 |
| 29 | Quillota | 09-05-2026 07:00 | 4,1 | 93 | 0 | 0,4 | 139 | 0 | 1015,4 |
| 28 | Quillota | 09-05-2026 06:45 | 4,4 | 92 | 0 | 0,4 | 116 | 0 | 1015,3 |
| 27 | Quillota | 09-05-2026 06:30 | 4,4 | 93 | 0 | 0,9 | 117 | 0 | 1015,1 |
| 26 | Quillota | 09-05-2026 06:15 | 4,8 | 92 | 0 | 0,4 | 224 | 0 | 1014,9 |
| 25 | Quillota | 09-05-2026 06:00 | 5,3 | 94 | 0 | 0 | 96 | 0 | 1014,9 |
| 24 | Quillota | 09-05-2026 05:45 | 4,3 | 92 | 0 | 0,9 | 125 | 0 | 1015,1 |
| 23 | Quillota | 09-05-2026 05:30 | 4,4 | 92 | 0 | 0 | 128 | 0 | 1015 |
| 22 | Quillota | 09-05-2026 05:15 | 4,4 | 91 | 0 | 0,4 | 175 | 0 | 1014,8 |
| 21 | Quillota | 09-05-2026 05:00 | 4,7 | 93 | 0 | 0 | 175 | 0 | 1014,7 |
| 20 | Quillota | 09-05-2026 04:45 | 4,4 | 92 | 0 | 0,4 | 163 | 0 | 1014,6 |
| 19 | Quillota | 09-05-2026 04:30 | 4,3 | 91 | 0 | 0 | 158 | 0 | 1014,7 |
| 18 | Quillota | 09-05-2026 04:15 | 5,4 | 90 | 0 | 0,4 | 174 | 0 | 1014,6 |
| 17 | Quillota | 09-05-2026 04:00 | 6,1 | 93 | 0 | 0,4 | 160 | 0 | 1014,7 |
| 16 | Quillota | 09-05-2026 03:45 | 6,1 | 92 | 0 | 0,9 | 166 | 0 | 1014,7 |
| 15 | Quillota | 09-05-2026 03:30 | 6,5 | 93 | 0 | 1,3 | 168 | 0 | 1014,8 |
| 14 | Quillota | 09-05-2026 03:15 | 4,9 | 92 | 0 | 0,9 | 123 | 0 | 1014,8 |
| 13 | Quillota | 09-05-2026 03:00 | 4,7 | 90 | 0 | 0 | 136 | 0 | 1014,8 |
| 12 | Quillota | 09-05-2026 02:45 | 5,1 | 92 | 0 | 0,4 | 136 | 0 | 1015,1 |
| 11 | Quillota | 09-05-2026 02:30 | 5,1 | 91 | 0 | 0 | 136 | 0 | 1015,3 |
| 10 | Quillota | 09-05-2026 02:15 | 5,8 | 90 | 0 | 0 | 136 | 0 | 1015,4 |
| 9 | Quillota | 09-05-2026 02:00 | 5,2 | 90 | 0 | 0,9 | 136 | 0 | 1015,7 |
| 8 | Quillota | 09-05-2026 01:45 | 5,8 | 92 | 0 | 0,9 | 116 | 0 | 1015,9 |
| 7 | Quillota | 09-05-2026 01:30 | 5,7 | 90 | 0 | 0 | 116 | 0 | 1015,8 |
| 6 | Quillota | 09-05-2026 01:15 | 6,9 | 91 | 0 | 0 | 117 | 0 | 1015,9 |
| 5 | Quillota | 09-05-2026 01:00 | 6,2 | 91 | 0 | 0,4 | 108 | 0 | 1015,9 |
| 4 | Quillota | 09-05-2026 00:45 | 6,2 | 90 | 0 | 0 | 107 | 0 | 1016 |
| 3 | Quillota | 09-05-2026 00:30 | 6,7 | 90 | 0 | 0 | 107 | 0 | 1015,9 |
| 2 | Quillota | 09-05-2026 00:15 | 6,9 | 89 | 0 | 0,4 | 106 | 0 | 1016 |
| 1 | Quillota | 09-05-2026 00:00 | 7,4 | 90 | 0 | 0 | 105 | 0 | 1016,2 |